Home > Weather > Parma > Past weeks

Flag for Italy Past Weather in Parma, Italy — Yesterday and Last 2 Weeks

Now
81 °F

Sunny.


Feels Like: 83 °F
Forecast: 67 / 89 °F
Wind: 3 mph from North

Location: Parma

Current Time: Jul 27, 2016 at 11:45:10 AM

Latest Report: Jul 27, 2016 at 10:50 AM


Visibility: 10 mi

Pressure: 29.98 "Hg

Humidity: 62%

Dew Point: 66 °F

Location of ParmaLocation

Past Weather in Parma — Graph

°F

Parma Temperature Yesterday

Maximum temperature yesterday: 90 °F (at 1:50 PM)
Minimum temperature yesterday: 72 °F (at 7:00 AM)
Average temperature yesterday: 84 °F

High & Low Weather Summary for the Past Weeks

 TemperatureHumidityPressure
High93 °F (Jul 20, 4:50 PM)88% (Jul 24, 7:00 AM)30.21 "Hg (Jul 24, 7:00 AM)
Low57 °F (Jul 16, 7:00 AM)23% (Jul 14, 4:50 PM)29.65 "Hg (Jul 13, 6:50 PM)
Average80 °F50%29.98 "Hg
* Reported Jul 12 9:50 AM — Jul 27 9:50 AM, Parma, Weather by CustomWeather, © 2016

Note: Actual official high and low records may vary slightly from our data, if they occured in-between our weather recording intervals... More about our weather records

Advertising

Parma Weather History for the Previous 24 Hours

Scroll right to see more
 ConditionsComfort  
Time TempWeatherWind HumidityBarometerVisibility
9:50 AM
Wed, Jul 27
79 °FSunny.5 mph65%30.01 "Hg10 mi
8:50 AM77 °FSunny.7 mph69%30.01 "Hg10 mi
7:50 AM73 °FSunny.3 mph78%30.01 "Hg10 mi
7:00 AM70 °FSunny.2 mph88%29.98 "Hg10 mi
10:50 PM
Tue, Jul 26
79 °FClear.3 mph70%29.98 "Hg10 mi
9:50 PM81 °FSunny.5 mph62%29.98 "Hg10 mi
8:50 PM82 °FSunny.5 mph55%29.98 "Hg10 mi
7:50 PM86 °FPassing clouds.5 mph52%29.95 "HgN/A
6:50 PM88 °FPassing clouds.5 mph46%29.95 "HgN/A
5:50 PM88 °FPassing clouds.6 mph49%29.95 "HgN/A
4:50 PM88 °FPassing clouds.3 mph46%29.95 "HgN/A
3:50 PM90 °FPassing clouds.3 mph43%29.98 "HgN/A
2:50 PM90 °FPassing clouds.5 mph41%29.98 "HgN/A
1:50 PM90 °FSunny.6 mph43%29.98 "Hg10 mi
12:50 PM88 °FSunny.3 mph46%30.01 "Hg10 mi
11:50 AM86 °FSunny.3 mph46%30.01 "Hg10 mi
Weather by CustomWeather, © 2016

See weather overviewHow to use our weather pages